Weather History for KTPA - November, 2012

Change the Weather History Date:

Saturday, November 17, 2012

  Actual Average Record
Temperature  
Mean Temperature 69 °F 69 °F  
Max Temperature 78 °F 78 °F 87 °F (1974)
Min Temperature 59 °F 60 °F 33 °F (1970)
Degree Days  
Heating Degree Days 0 1  
Month to date heating degree days 12 15  
Since 1 July heating degree days 18 19  
Cooling Degree Days 4 5  
Month to date cooling degree days 64 108  
Year to date cooling degree days 3859 3474  
Growing Degree Days 18 (Base 50)    
Moisture  
Dew Point 57 °F    
Average Humidity 69    
Maximum Humidity 87    
Minimum Humidity 50    
Precipitation  
Precipitation 0.00 in 0.05 in 1.43 in (1894)
Month to date precipitation 0.16 0.87  
Year to date precipitation 53.79 43.15  
Sea Level Pressure  
Sea Level Pressure 30.14 in    
Wind  
Wind Speed 9 mph (NE)    
Max Wind Speed 18 mph    
Max Gust Speed 35 mph    
Visibility 9 miles    
Events      
T = Trace of Precipitation, MM = Missing Value Source: NWS Daily Summary

Daily Weather History Graph

Daily Weather History Graph

Search for Another Location

Airport or City:

Trip Planner

Search our weather history database for the weather conditions in past years. The results will help you decide how hot, cold, wet, or windy it might be!

Date:

Astronomy

Nov. 17, 2012 Rise Set
Actual Time 6:53 AM EST 5:36 PM EST
Civil Twilight 6:28 AM EST 6:01 PM EST
Nautical Twilight 6:00 AM EST 6:29 PM EST
Astronomical Twilight 5:32 AM EST 6:57 PM EST
Moon 10:37 AM EST (11/17) 9:43 PM EST (11/17)
Length of Visible Light 11h 32m
Length of Day
10h 43m
Waxing Crescent, 20% of the Moon is Illuminated
Nov 17
Waxing Crescent
Nov 20
First Quarter
Nov 28
Full
Dec 6
Last Quarter
Dec 13
New

Hourly Weather History & Observations

Time (EST) Temp. Dew Point Humidity Pressure Visibility Wind Dir Wind Speed Gust Speed Precip Events Conditions
12:13 AM 60.8 °F 53.6 °F 77% 30.14 in 10.0 mi NNE 10.4 mph 17.3 mph N/A   Overcast
12:53 AM 60.1 °F 55.0 °F 83% 30.15 in 10.0 mi NNE 9.2 mph - N/A   Overcast
1:53 AM 59.0 °F 55.0 °F 87% 30.14 in 8.0 mi NNE 10.4 mph - N/A   Overcast
2:53 AM 59.0 °F 55.0 °F 87% 30.13 in 9.0 mi NNE 8.1 mph - N/A   Overcast
3:53 AM 59.0 °F 54.0 °F 83% 30.13 in 8.0 mi North 8.1 mph - N/A   Overcast
4:53 AM 59.0 °F 55.0 °F 87% 30.13 in 8.0 mi NE 11.5 mph 19.6 mph N/A   Overcast
5:53 AM 59.0 °F 55.0 °F 87% 30.14 in 8.0 mi NE 10.4 mph 18.4 mph N/A   Overcast
6:53 AM 60.1 °F 55.9 °F 86% 30.16 in 8.0 mi Variable 4.6 mph - N/A   Overcast
7:53 AM 60.1 °F 55.9 °F 86% 30.17 in 7.0 mi NE 8.1 mph - N/A   Overcast
8:53 AM 62.1 °F 57.0 °F 84% 30.18 in 7.0 mi NE 10.4 mph 16.1 mph N/A   Overcast
9:39 AM 64.4 °F 57.2 °F 77% 30.17 in 8.0 mi NE 6.9 mph - N/A   Mostly Cloudy
9:53 AM 66.0 °F 57.9 °F 75% 30.17 in 9.0 mi NNE 8.1 mph - N/A   Scattered Clouds
10:53 AM 70.0 °F 57.9 °F 65% 30.17 in 10.0 mi NNE 5.8 mph - N/A   Partly Cloudy
11:53 AM 73.0 °F 57.9 °F 59% 30.14 in 10.0 mi Calm Calm - N/A   Scattered Clouds
12:53 PM 75.9 °F 57.9 °F 54% 30.12 in 10.0 mi NE 4.6 mph - N/A   Partly Cloudy
1:53 PM 78.1 °F 59.0 °F 52% 30.10 in 10.0 mi North 6.9 mph - N/A   Scattered Clouds
2:53 PM 77.0 °F 57.9 °F 52% 30.09 in 10.0 mi NNE 8.1 mph 17.3 mph N/A   Scattered Clouds
3:53 PM 77.0 °F 57.9 °F 52% 30.09 in 10.0 mi NNE 6.9 mph - N/A   Scattered Clouds
4:53 PM 75.9 °F 57.9 °F 54% 30.09 in 10.0 mi NNE 9.2 mph - N/A   Partly Cloudy
5:53 PM 71.1 °F 61.0 °F 70% 30.11 in 10.0 mi NE 11.5 mph 20.7 mph N/A   Scattered Clouds
6:53 PM 68.0 °F 60.1 °F 76% 30.14 in 10.0 mi NNE 13.8 mph 18.4 mph N/A   Clear
7:53 PM 66.0 °F 57.9 °F 75% 30.15 in 10.0 mi NE 9.2 mph 20.7 mph N/A   Partly Cloudy
8:53 PM 64.0 °F 57.9 °F 80% 30.17 in 10.0 mi NE 10.4 mph 20.7 mph N/A   Scattered Clouds
9:53 PM 64.0 °F 57.0 °F 78% 30.18 in 10.0 mi NE 13.8 mph 21.9 mph N/A   Scattered Clouds
10:36 PM 64.4 °F 57.2 °F 77% 30.18 in 10.0 mi NE 11.5 mph 24.2 mph N/A   Mostly Cloudy
10:44 PM 64.4 °F 57.2 °F 77% 30.18 in 10.0 mi NE 11.5 mph 20.7 mph N/A   Mostly Cloudy
10:53 PM 64.0 °F 57.0 °F 78% 30.18 in 10.0 mi NE 10.4 mph 18.4 mph N/A   Overcast
11:53 PM 64.0 °F 57.0 °F 78% 30.16 in 10.0 mi NE 11.5 mph 17.3 mph N/A   Mostly Cloudy